Change the Weather History Date:

Tuesday, September 3, 2013

  Actual Average (KPDC) Record (KPDC)
Temperature  
Mean Temperature 62 °F -  
Max Temperature 78 °F 80 °F 95 °F (1960)
Min Temperature 48 °F 57 °F 38 °F (1974)
Degree Days  
Heating Degree Days 2    
Growing Degree Days 12 (Base 50)    
Moisture  
Dew Point 51 °F    
Average Humidity 86    
Maximum Humidity 97    
Minimum Humidity 42    
Precipitation  
Precipitation 0.00 in - - ()
Sea Level Pressure  
Sea Level Pressure 30.05 in    
Wind  
Wind Speed 1 mph (SW)    
Max Wind Speed 8 mph    
Max Gust Speed -    
Visibility 4 miles    
Events Fog    
Averages and records for this station are not official NWS values.
T = Trace of Precipitation, MM = Missing Value Source: NWS Daily Summary

Daily Weather History Graph

Daily Weather History Graph

Search for Another Location

Airport or City:

Trip Planner

Search our weather history database for the weather conditions in past years. The results will help you decide how hot, cold, wet, or windy it might be!

Date:

Astronomy

Sep. 03, 2013 Rise Set
Actual Time 6:29 AM CDT 7:33 PM CDT
Civil Twilight 6:00 AM CDT 8:02 PM CDT
Nautical Twilight 5:25 AM CDT 8:37 PM CDT
Astronomical Twilight 4:48 AM CDT 9:13 PM CDT
Moon 4:42 AM CDT (9/3) 6:21 PM CDT (9/3)
Length of Visible Light 14h 02m
Length of Day
13h 04m
Waning Crescent, 3% of the Moon is Illuminated
Sep 3
Waning Crescent
Sep 5
New
Sep 12
First Quarter
Sep 19
Full
Sep 26
Last Quarter

Hourly Weather History & Observations

Time (CDT) Temp. Dew Point Humidity Pressure Visibility Wind Dir Wind Speed Gust Speed Precip Events Conditions
12:04 AM 50.0 °F 48.0 °F 93% 30.04 in 3.0 mi Calm Calm - N/A   Clear
12:40 AM 48.9 °F 48.0 °F 97% 30.05 in 1.8 mi Calm Calm - N/A   Clear
12:47 AM 48.2 °F 46.4 °F 93% 30.05 in 2.0 mi NE 4.6 mph - N/A   Partly Cloudy
12:48 AM 48.2 °F 46.4 °F 93% 30.05 in 1.8 mi ENE 4.6 mph - N/A   Partly Cloudy
12:53 AM 50.0 °F 48.0 °F 93% 30.05 in 2.5 mi NE 3.5 mph - N/A   Partly Cloudy
1:00 AM 48.9 °F 48.0 °F 97% 30.05 in 10.0 mi Calm Calm - N/A   Partly Cloudy
1:11 AM 48.9 °F 46.9 °F 93% 30.05 in 2.0 mi Calm Calm - N/A   Mostly Cloudy
1:13 AM 48.9 °F 46.9 °F 93% 30.05 in 1.0 mi Calm Calm - N/A   Mostly Cloudy
1:21 AM 48.9 °F 46.9 °F 93% 30.05 in 0.8 mi Calm Calm - N/A   Mist
1:53 AM 50.0 °F 48.9 °F 96% 30.06 in 0.2 mi Calm Calm - N/A Fog Fog
2:25 AM 50.0 °F 48.9 °F 96% 30.07 in 1.2 mi SSW 3.5 mph - N/A   Overcast
2:27 AM 50.0 °F 48.9 °F 96% 30.07 in 3.0 mi South 3.5 mph - N/A   Overcast
2:33 AM 50.0 °F 48.9 °F 96% 30.07 in 1.5 mi Calm Calm - N/A   Overcast
2:36 AM 50.0 °F 48.9 °F 96% 30.07 in 0.8 mi Calm Calm - N/A   Overcast
2:53 AM 50.0 °F 48.0 °F 93% 30.08 in 0.2 mi Calm Calm - N/A Fog Fog
3:53 AM 50.0 °F 48.9 °F 96% 30.08 in 0.2 mi Calm Calm - N/A Fog Fog
4:53 AM 50.0 °F 48.9 °F 96% 30.09 in 0.2 mi Calm Calm - N/A Fog Fog
5:53 AM 48.9 °F 48.0 °F 97% 30.10 in 0.2 mi Calm Calm - N/A Fog Fog
6:53 AM 48.9 °F 48.0 °F 97% 30.11 in 0.2 mi Calm Calm - N/A Fog Fog
7:53 AM 50.0 °F 48.9 °F 96% 30.13 in 0.2 mi Calm Calm - N/A Fog Fog
8:53 AM 52.0 °F 51.1 °F 97% 30.13 in 0.2 mi Calm Calm - N/A Fog Fog
9:23 AM 54.0 °F 52.0 °F 93% 30.12 in 1.2 mi Calm Calm - N/A   Overcast
9:27 AM 54.0 °F 52.0 °F 93% 30.12 in 3.0 mi Calm Calm - N/A   Overcast
9:45 AM 57.0 °F 53.1 °F 87% 30.12 in 10.0 mi Calm Calm - N/A   Scattered Clouds
9:53 AM 60.1 °F 53.1 °F 78% 30.13 in 10.0 mi Calm Calm - N/A   Partly Cloudy
10:53 AM 68.0 °F 52.0 °F 56% 30.12 in - West 5.8 mph - N/A   Clear
11:53 AM 71.1 °F 53.1 °F 53% 30.11 in 10.0 mi SW 5.8 mph - N/A   Clear
12:53 PM 73.9 °F 54.0 °F 50% 30.09 in 10.0 mi Variable 5.8 mph - N/A   Clear
1:53 PM 75.0 °F 53.1 °F 46% 30.07 in 10.0 mi Variable 3.5 mph - N/A   Clear
2:53 PM 75.9 °F 52.0 °F 43% 30.06 in 10.0 mi WSW 8.1 mph - N/A   Clear
3:53 PM 77.0 °F 52.0 °F 42% 29.53 in 10.0 mi West 6.9 mph - N/A   Clear
4:53 PM 77.0 °F 53.1 °F 43% 29.53 in 10.0 mi SW 6.9 mph - N/A   Clear
5:53 PM 73.0 °F 57.0 °F 57% 30.04 in 10.0 mi WSW 4.6 mph - N/A   Clear
6:53 PM 72.0 °F 55.0 °F 55% 30.04 in 10.0 mi Calm Calm - N/A   Clear
7:53 PM 62.1 °F 57.0 °F 84% 30.04 in 10.0 mi Calm Calm - N/A   Clear
8:53 PM 57.0 °F 54.0 °F 89% 30.06 in 10.0 mi Calm Calm - N/A   Clear
9:53 PM 55.9 °F 53.1 °F 90% 30.06 in 10.0 mi Calm Calm - N/A   Clear
10:20 PM 55.0 °F 53.1 °F 93% 30.05 in 2.0 mi Calm Calm - N/A   Partly Cloudy
10:22 PM 55.0 °F 53.1 °F 93% 30.05 in 0.8 mi Calm Calm - N/A   Mist
10:40 PM 54.0 °F 52.0 °F 93% 30.05 in 1.2 mi Calm Calm - N/A   Partly Cloudy
10:44 PM 54.0 °F 52.0 °F 93% 30.05 in 3.0 mi Calm Calm - N/A   Partly Cloudy
10:53 PM 54.0 °F 52.0 °F 93% 30.06 in 5.0 mi Calm Calm - N/A   Clear
10:56 PM 54.0 °F 52.0 °F 93% 30.05 in 1.8 mi Calm Calm - N/A   Clear
10:59 PM 53.1 °F 52.0 °F 96% 30.05 in 0.8 mi Calm Calm - N/A   Clear
11:08 PM 54.0 °F 52.0 °F 93% 30.05 in 0.2 mi Calm Calm - N/A Fog Fog
11:15 PM 53.1 °F 52.0 °F 96% 30.05 in 2.5 mi Calm Calm - N/A   Partly Cloudy
11:18 PM 53.1 °F 52.0 °F 96% 30.05 in 1.0 mi Calm Calm - N/A   Mist
11:28 PM 53.1 °F 51.1 °F 93% 30.06 in 2.0 mi Calm Calm - N/A   Partly Cloudy
11:32 PM 53.1 °F 51.1 °F 93% 30.06 in 1.0 mi Calm Calm - N/A   Mist
11:42 PM 52.0 °F 51.1 °F 97% 30.06 in 2.5 mi Calm Calm - N/A   Clear
11:49 PM 51.8 °F 50.0 °F 94% 30.06 in 7.0 mi Calm Calm - N/A   Clear
11:53 PM 52.0 °F 50.0 °F 93% 30.06 in 1.0 mi Calm Calm - N/A   Clear